RH
51 54 56 59 60 60 60 62 89 90 94 94 93 94 87 86 90 88 89 87 89 90 89 93 93 96 97 95 92 90 80 76
53 56 61 63 64 66 65 61 68 88 97 96 97 95 91 89 88 85 86 84 86 89 85 90 89 88 88 90 91 88 88 86
59 61 65 68 68 69 67 66 66 73 84 92 92 92 93 87 84 85 86 83 83 83 82 86 87 84 89 88 85 91 86 92
67 66 69 70 72 72 68 69 73 72 79 86 94 94 94 88 90 86 84 82 78 79 80 82 86 82 85 84 81 78 78 91
70 70 72 73 73 70 69 70 75 69 82 80 89 88 88 83 84 84 81 83 78 75 76 80 83 82 80 82 78 75 80 74
76 75 74 72 70 72 72 69 72 76 82 79 91 95 84 84 91 91 85 86 83 73 76 79 79 83 80 81 80 76 71 63
74 74 75 75 70 70 73 68 70 75 82 86 88 91 93 93 81 85 90 87 89 85 73 77 76 78 80 80 77 78 71 67
82 79 80 77 73 72 71 67 70 72 80 84 88 90 91 93 93 92 86 89 86 87 85 81 80 76 76 77 79 77 75 72
83 81 74 79 73 73 73 73 67 70 72 80 84 88 83 85 89 93 91 80 84 82 89 79 76 77 76 78 76 76 74 74
86 79 76 76 76 75 76 77 67 66 73 78 82 85 86 82 86 87 90 87 79 84 88 87 81 76 76 79 78 76 75 77
75 77 75 74 79 77 80 73 72 72 74 78 77 82 83 85 86 88 90 90 89 83 86 87 88 84 81 82 80 77 77 76
78 73 70 74 82 80 83 74 69 75 75 77 82 82 82 83 86 85 87 89 89 90 92 88 86 86 86 87 84 80 80 77
80 79 74 74 76 81 81 69 69 75 68 77 81 82 82 83 84 84 85 88 88 89 88 91 92 85 85 88 88 83 83 80
86 81 78 74 74 85 84 66 70 71 68 74 80 82 83 84 83 84 83 85 86 86 84 88 87 93 92 87 87 87 86 84
90 86 84 81 75 88 89 71 70 73 70 71 80 83 82 82 80 82 81 83 84 86 88 89 90 85 91 95 93 91 86 83
84 85 86 81 79 90 91 78 73 75 70 70 78 81 80 80 81 81 80 83 83 83 86 88 87 91 85 88 90 92 92 91
83 82 82 78 81 90 83 79 81 84 76 73 72 77 79 81 81 80 81 84 84 84 86 89 90 87 98 100 100 93 85 86
85 85 84 76 81 75 74 78 78 81 81 73 74 76 80 82 79 78 82 84 85 86 87 88 90 93 97 96 98 93 95 89
82 86 81 72 73 70 74 74 75 77 73 75 76 79 80 83 82 81 84 85 87 89 88 86 89 87 97 95 94 94 93 94
Wind_Speed
16 19 18 16 16 16 17 15 8 11 9 8 7 6 8 9 9 9 13 12 13 10 8 8 8 5 4 3 4 3 3 4
15 15 17 18 17 18 17 16 15 11 5 8 8 10 9 8 8 10 9 10 13 12 9 8 9 10 9 8 4 5 4 3
19 20 18 18 16 16 16 16 14 10 6 7 7 7 8 8 7 8 9 12 13 13 13 11 11 8 9 10 8 3 4 5
17 19 18 17 19 18 16 15 15 12 14 9 7 3 2 6 7 9 12 15 14 14 13 11 11 11 10 11 11 12 6 5
11 15 18 17 17 15 15 14 13 13 14 12 13 9 9 8 9 9 9 12 13 13 12 12 11 10 11 11 10 11 6 10
12 11 13 16 15 15 13 13 13 13 12 12 9 11 8 6 5 9 10 9 13 14 14 13 12 9 11 11 11 13 11 8
9 8 8 12 14 15 14 14 13 14 13 12 12 12 12 8 6 7 6 8 9 14 14 13 14 12 12 12 12 13 13 12
8 11 8 10 13 15 16 15 14 13 13 13 11 12 12 11 10 7 7 8 8 13 15 14 13 15 14 12 12 13 13 12
7 9 8 8 10 12 13 18 16 13 12 13 11 11 9 9 10 9 8 9 11 13 14 16 18 17 16 14 11 12 12 12
8 9 8 8 9 11 11 10 16 17 12 10 11 11 11 11 12 11 7 11 9 12 14 16 18 18 17 16 13 14 13 13
8 8 9 7 6 8 9 10 9 12 17 10 10 12 12 11 11 12 13 13 13 12 13 15 16 17 17 15 14 15 15 12
8 8 10 9 7 6 7 9 11 10 11 16 12 11 13 12 11 12 12 13 14 11 10 12 15 16 17 15 17 17 17 17
8 9 9 9 8 6 6 7 8 10 11 11 13 12 13 13 13 14 13 14 14 14 10 10 11 15 15 18 19 18 17 20
8 8 9 9 8 6 6 8 9 9 10 11 11 13 12 13 14 14 15 15 14 14 14 11 12 12 14 16 19 19 19 20
6 7 7 7 7 6 6 8 8 9 11 11 11 12 13 13 14 15 15 15 15 15 14 15 14 13 12 9 12 18 18 19
7 7 8 7 7 6 6 7 9 9 10 10 10 11 12 12 12 13 14 14 15 16 16 14 16 12 11 15 12 12 13 15
8 9 8 7 7 7 7 8 7 6 9 11 12 12 12 13 12 12 12 14 15 15 15 15 14 9 17 10 5 12 12 16
8 8 8 6 6 6 7 7 6 7 6 9 11 12 13 14 15 14 13 14 15 15 15 14 15 9 17 21 21 9 11 17
8 6 6 6 5 6 7 6 6 8 8 9 10 10 11 12 14 15 14 11 12 14 14 14 12 9 15 24 26 15 11 12
Wind_Direction
357 347 349 353 357 358 1 4 274 214 210 225 223 208 209 213 206 203 191 192 190 192 196 189 176 180 193 168 192 186 172 173
351 352 347 352 0 360 359 357 350 355 225 211 211 214 207 208 213 213 198 202 193 193 197 192 190 189 195 193 173 189 215 164
357 350 352 353 349 351 354 349 348 344 327 299 217 212 216 210 195 200 200 203 203 200 198 195 192 191 186 186 184 165 203 184
349 350 348 347 347 347 347 344 346 352 343 312 247 189 196 190 198 206 205 203 207 210 206 201 193 193 196 194 190 191 193 202
353 345 344 346 338 338 341 342 346 351 349 347 333 231 228 218 214 218 208 199 206 212 216 209 205 203 200 197 191 195 158 201
353 343 335 331 339 337 337 345 344 347 352 356 351 350 285 232 217 210 209 201 203 207 209 209 210 206 212 196 194 196 202 203
340 328 320 330 335 339 338 349 346 345 348 353 354 348 332 333 277 217 199 207 207 206 206 207 215 213 210 206 199 199 203 212
332 335 332 330 337 338 337 345 343 350 348 349 349 344 334 329 320 289 227 208 209 210 203 207 212 214 216 209 203 210 206 209
313 311 327 324 330 334 333 334 342 347 353 344 345 344 345 331 320 303 295 230 221 215 209 209 213 216 217 206 204 211 208 215
308 310 315 320 328 327 325 324 333 339 349 348 343 343 342 331 324 320 300 303 240 217 207 211 216 217 216 207 209 208 209 210
309 311 308 310 308 312 317 321 323 329 334 353 348 338 337 334 331 338 335 327 321 252 213 211 218 220 219 212 212 215 207 212
308 307 312 304 296 309 311 325 332 336 335 334 345 345 338 337 338 339 335 331 327 314 286 223 222 218 219 217 216 214 213 214
302 305 310 313 311 313 321 328 334 337 341 337 333 341 342 338 338 341 338 332 330 322 296 295 261 231 219 215 223 221 213 218
304 312 317 319 320 314 315 331 332 342 345 340 334 335 342 342 339 341 338 335 335 327 317 287 278 281 239 229 220 224 225 225
291 297 304 309 318 320 319 329 342 338 342 343 341 336 336 343 343 338 339 339 337 332 322 314 283 259 256 239 221 237 233 228
312 309 308 302 326 328 325 319 332 339 344 341 334 334 336 337 340 341 336 339 338 333 323 315 314 268 251 245 237 238 219 246
309 314 318 318 327 327 328 319 320 329 336 333 333 340 342 341 337 341 345 341 337 331 331 328 326 320 337 343 277 250 237 235
298 296 298 299 319 326 325 322 317 334 327 333 331 338 341 342 338 336 346 345 340 335 335 334 327 334 351 343 318 281 250 231
293 289 297 305 320 324 319 328 334 334 335 335 338 339 334 336 338 337 331 345 341 334 331 332 335 333 359 343 335 291 252 252